Wind_Speed
42 41 41 41 41 41 40 40 40 41 41 40 40 40 39 39 39 39 40 40 39 37 37 38 36 35 36 38 39 39 39 38 37 36 35 35 36 36 37 36 35 33 31 29 26 22 20 20 17 14 12 12 13 16 17 17 15 12 10 11 13 17 22 27 31 33 33 32 30 28 25 24 24 24 23 21 18 16 15 13 12 11 9 6 4 2
45 43 42 42 42 42 42 42 41 41 41 41 41 40 39 39 40 39 39 39 39 37 36 37 37 35 36 37 38 39 39 38 37 36 36 36 36 35 35 35 34 32 29 27 25 21 18 18 16 12 11 11 13 15 15 13 11 9 9 12 18 25 28 29 30 31 31 31 31 29 27 27 27 27 27 25 22 20 18 16 13 11 8 5 3 2
47 45 43 43 44 44 43 42 42 42 42 41 42 41 40 40 40 39 38 38 38 37 37 37 37 36 36 37 37 38 38 38 37 36 36 36 35 35 34 33 32 30 28 25 23 20 18 15 13 10 10 11 12 13 12 10 9 8 10 16 23 27 25 22 23 25 25 26 27 26 26 26 26 26 26 25 22 20 18 16 14 10 7 4 2 3
50 47 45 45 45 45 44 43 43 43 42 42 42 41 41 40 39 38 37 38 38 38 36 37 38 36 35 37 36 37 38 38 37 36 36 35 34 34 33 31 29 27 25 23 21 20 17 13 9 7 8 10 11 11 11 14 16 13 12 18 24 23 21 20 22 23 22 23 23 23 25 26 26 25 24 22 20 18 16 14 12 10 7 4 3 4
51 48 47 47 46 45 44 44 44 43 42 42 41 41 41 40 39 38 38 38 38 38 35 35 38 37 35 36 36 36 38 38 38 37 37 35 33 33 32 29 27 24 21 21 20 18 15 11 6 6 8 9 8 9 14 19 21 19 15 15 17 19 19 20 21 23 23 22 22 22 23 25 26 24 21 19 16 15 13 12 11 9 7 5 4 5
50 49 49 49 48 47 46 46 44 42 42 43 42 41 42 40 39 39 39 39 38 38 36 34 35 37 36 35 36 37 38 39 38 37 37 36 33 32 31 28 24 20 18 18 17 15 13 9 5 7 9 7 8 11 14 16 16 17 14 11 10 13 15 16 19 23 25 25 24 22 21 22 24 23 21 18 15 13 11 10 10 9 6 5 5 6
49 49 49 49 49 49 48 47 44 42 43 44 43 42 42 41 39 40 39 39 39 38 36 34 33 35 36 35 35 36 37 39 38 36 37 36 33 31 30 26 22 17 14 14 14 12 10 7 6 7 5 9 12 11 10 10 8 8 10 9 6 7 10 12 15 19 23 25 25 24 22 20 20 21 20 18 14 11 11 9 9 9 8 7 7 8
49 48 48 48 49 49 49 48 45 43 44 45 44 43 43 42 40 40 40 39 38 37 36 34 32 33 35 35 34 35 36 38 38 36 36 35 32 31 29 25 19 14 12 12 11 10 8 7 5 3 8 13 11 8 7 7 6 4 5 6 4 3 6 10 12 15 19 21 22 23 23 21 21 20 17 15 13 11 11 10 9 9 9 8 8 10
49 47 47 48 49 49 49 48 46 45 44 44 44 43 43 42 41 40 40 39 38 38 36 34 32 32 34 35 34 35 36 36 37 35 34 34 31 30 28 23 17 11 10 11 10 8 7 7 4 4 9 10 8 8 7 6 5 3 2 4 2 3 6 9 12 14 16 18 19 21 22 23 25 24 19 14 10 10 12 13 11 11 11 12 12 13
47 46 47 48 48 48 48 48 47 46 45 44 44 43 42 42 41 40 40 39 39 39 36 34 33 32 33 35 35 35 35 35 35 33 33 33 31 29 27 21 15 11 10 11 10 9 8 6 3 7 8 8 9 9 9 7 6 5 4 3 1 3 6 8 12 15 17 18 19 22 23 25 27 27 25 21 14 11 13 16 15 13 13 15 16 17
46 45 47 48 48 47 47 47 46 46 45 44 44 44 43 42 41 41 41 40 40 40 37 35 35 33 33 35 35 34 33 33 34 33 33 33 31 29 25 20 14 11 12 12 11 11 8 5 4 9 9 8 10 8 6 6 6 6 6 5 3 3 5 7 11 15 19 22 22 23 24 24 24 26 28 27 22 19 18 18 16 13 13 16 18 21
46 47 48 48 47 47 46 46 45 45 45 45 44 44 44 43 41 41 40 40 42 41 39 37 37 35 33 34 36 34 32 32 33 33 33 33 30 27 24 19 13 11 13 14 14 13 8 3 8 11 10 7 8 5 3 4 5 5 6 6 5 6 7 9 12 15 20 24 24 24 24 24 24 26 29 29 26 23 21 18 16 15 15 17 20 22
48 49 49 49 47 46 46 46 45 45 45 45 45 44 44 43 41 41 40 40 42 41 39 38 38 36 34 34 35 35 33 32 32 33 34 33 29 25 22 18 14 12 14 17 16 14 7 6 10 12 11 7 7 5 4 4 4 4 6 7 7 7 9 13 15 17 21 26 29 28 25 25 28 30 30 28 26 24 22 19 17 15 16 18 21 21
50 50 49 49 48 46 46 46 45 45 45 45 45 44 43 42 41 41 40 40 41 40 39 39 39 37 35 34 35 35 34 33 33 33 34 32 27 23 21 18 15 14 15 18 17 14 8 9 12 12 12 8 9 8 5 2 2 3 5 10 13 12 12 13 13 15 19 25 28 30 30 29 31 32 31 30 28 26 24 22 20 18 19 22 23 22
51 51 50 47 46 46 47 46 46 46 45 44 44 43 42 42 41 42 41 40 40 39 39 39 39 38 36 35 35 35 34 34 33 33 33 30 25 21 20 18 17 15 16 17 17 15 9 12 13 12 13 10 9 7 4 3 3 1 6 14 16 16 15 13 14 15 18 19 22 28 31 32 32 33 33 33 31 27 25 26 25 23 24 27 25 25
51 52 50 46 45 46 46 46 46 46 45 44 42 42 42 41 41 41 41 40 39 38 39 40 40 39 37 36 36 36 35 34 34 33 32 29 24 21 20 19 18 17 17 17 16 15 12 14 15 15 15 9 7 4 2 3 2 6 11 12 12 16 17 14 15 16 23 29 24 25 30 32 34 35 34 33 32 30 31 32 31 29 31 31 27 28
51 51 49 46 46 46 45 46 46 45 45 44 42 41 41 41 41 41 40 39 38 38 39 40 40 39 38 36 35 35 35 34 34 33 31 28 23 22 21 19 18 17 17 17 16 17 15 16 18 18 15 9 7 7 4 1 3 8 10 9 11 15 15 19 25 26 32 44 42 36 37 38 40 42 37 33 33 35 37 36 34 36 37 33 29 32
50 50 48 47 46 46 45 46 45 44 44 44 42 41 41 41 41 40 40 38 37 37 38 39 39 38 36 35 34 33 33 34 34 32 29 26 23 22 22 19 18 18 19 19 18 18 17 16 18 18 14 11 10 8 6 5 8 6 6 11 16 17 20 25 27 28 41 58 57 45 38 38 41 42 38 36 39 40 38 37 37 39 39 35 33 36
49 49 48 46 46 45 45 45 44 44 43 42 42 42 41 41 40 39 39 37 35 36 36 37 37 37 34 33 32 32 32 34 33 29 26 24 23 22 22 20 19 21 22 21 19 18 17 16 19 19 15 13 12 9 9 10 9 5 2 11 14 16 24 30 24 26 41 58 52 31 22 28 34 36 37 39 40 38 36 36 39 40 38 37 38 40
48 47 46 45 45 44 45 44 44 43 42 41 42 42 41 40 38 37 37 35 33 33 33 34 35 35 33 31 31 31 32 33 30 26 24 24 23 22 21 20 21 23 24 23 21 18 18 16 19 20 16 15 15 12 11 12 8 7 5 10 9 11 18 27 19 17 25 42 36 23 16 17 24 30 34 35 34 33 35 37 40 40 39 39 41 44
45 46 45 45 44 43 43 43 43 43 42 40 41 41 39 37 35 34 34 32 31 30 30 30 32 33 32 30 30 31 32 31 26 23 23 24 23 21 21 21 21 23 25 25 23 20 19 17 17 18 17 17 18 15 13 13 9 9 8 8 7 6 13 21 12 13 39 43 25 19 14 11 16 25 29 30 31 34 37 39 39 39 40 43 45 49
42 43 43 43 42 41 42 41 41 42 40 39 39 37 35 33 30 30 30 29 27 26 26 27 29 31 30 29 30 31 31 27 22 22 23 23 22 20 20 21 22 24 25 26 25 21 21 19 16 17 18 18 19 17 16 14 10 11 10 6 10 18 21 18 16 27 45 44 26 21 19 15 18 25 29 31 34 35 35 37 38 41 45 48 51 55
39 40 40 40 39 39 39 39 39 39 38 37 36 33 31 29 27 27 28 27 25 24 24 25 28 30 29 29 30 30 28 24 21 22 22 22 22 20 21 22 23 25 26 27 26 22 22 21 16 16 17 17 18 17 17 16 13 12 13 10 14 23 23 19 18 24 35 42 40 37 37 33 33 38 40 40 42 41 42 46 49 54 57 58 60 64
38 39 39 38 37 37 37 37 37 37 37 35 32 30 28 27 26 26 27 25 24 24 23 25 28 29 29 30 30 28 25 22 21 21 21 21 21 21 22 23 24 26 26 26 26 23 22 21 17 16 16 16 17 16 17 19 18 17 18 19 20 25 24 20 20 21 25 31 37 40 43 44 48 51 51 52 54 54 57 60 62 64 65 66 68 70
37 38 38 37 36 36 37 37 37 36 34 32 30 28 27 26 25 25 25 24 24 25 25 27 28 28 29 30 28 24 22 21 21 21 20 20 21 21 21 22 24 26 25 26 26 23 22 21 18 15 15 17 17 15 16 18 20 20 21 23 25 27 27 26 24 22 22 24 27 32 36 40 45 48 51 54 55 56 58 60 61 64 65 67 69 70
34 36 36 36 35 35 35 35 35 33 32 31 29 27 27 26 26 25 25 24 24 25 27 29 29 29 29 28 24 21 21 21 20 20 19 19 19 20 20 22 24 25 24 25 25 23 23 22 20 17 17 18 16 15 16 17 19 20 21 22 24 25 26 28 29 29 29 30 32 34 37 42 46 50 53 55 55 57 59 60 63 65 66 68 70 72
32 33 34 33 32 31 30 32 32 31 31 30 28 28 28 27 26 25 24 22 23 25 27 28 30 30 29 25 21 20 20 19 19 19 18 18 18 19 19 21 22 23 23 24 24 24 24 24 23 21 20 19 18 17 17 18 18 19 20 22 24 24 23 25 29 31 33 36 38 40 44 48 52 55 57 59 61 62 63 64 66 66 68 70 72 74
32 33 33 32 30 28 27 29 30 30 31 30 29 29 28 27 25 23 22 22 23 25 26 28 30 31 27 21 19 20 19 18 18 17 17 17 17 17 19 20 22 22 22 23 24 25 26 26 26 25 23 21 20 19 20 21 21 20 19 20 22 23 24 25 27 29 32 35 38 41 45 48 51 54 57 59 62 64 67 68 69 69 71 73 74 76
31 33 33 31 29 27 27 28 29 29 29 29 29 28 26 23 22 20 20 22 23 24 26 28 29 28 24 21 20 19 17 16 17 17 17 16 16 17 18 20 21 21 21 21 23 25 26 27 28 27 25 24 23 22 22 24 26 26 26 25 25 26 26 27 28 30 32 34 38 41 45 47 49 51 53 55 58 62 65 68 69 71 72 73 73 74
31 32 32 30 29 28 27 27 27 26 26 26 25 24 21 19 18 19 20 22 22 23 25 26 26 24 23 22 21 18 15 16 16 16 16 16 16 17 18 20 20 19 20 21 22 24 26 28 28 27 27 26 25 25 25 26 27 29 30 30 31 31 32 33 33 34 35 38 41 44 47 48 50 52 54 55 57 58 60 62 64 65 66 66 66 64
33 33 32 30 29 28 27 26 24 23 23 22 21 18 16 16 18 20 21 21 21 23 24 24 22 21 23 23 21 17 15 15 15 15 15 15 16 17 18 19 19 19 19 19 21 23 25 26 27 27 27 27 26 27 29 29 30 31 32 32 33 34 35 37 38 39 41 43 45 47 49 50 51 52 54 55 54 54 54 55 56 57 57 56 55 53
35 34 33 31 29 27 26 24 22 21 20 19 16 14 14 16 19 22 22 21 22 24 24 21 20 21 23 22 19 16 14 13 13 13 14 15 16 17 17 17 18 19 19 19 20 22 24 24 25 26 27 27 27 28 29 30 32 33 34 35 36 37 38 39 41 41 43 44 45 47 48 48 49 49 49 49 49 49 50 50 50 49 48 47 45 44
36 34 33 31 29 27 26 25 22 20 19 17 15 14 15 17 20 22 23 23 25 26 23 19 20 22 22 20 18 15 13 12 12 13 13 14 15 15 15 16 18 20 20 20 20 21 22 23 23 24 26 27 27 28 28 29 30 31 33 34 36 37 38 39 39 40 41 42 42 43 43 43 43 43 43 44 44 45 45 44 42 41 40 39 38 37
36 34 33 32 30 28 27 25 22 20 18 16 16 18 18 18 19 21 24 26 28 25 19 18 21 23 21 18 17 15 14 13 12 12 12 13 14 14 14 16 18 20 21 20 19 19 20 21 22 23 25 26 27 28 28 29 29 30 30 32 33 34 35 36 36 37 38 38 37 38 38 38 38 38 38 39 39 38 37 36 35 34 34 33 32 31
36 34 33 32 31 29 27 25 22 20 18 17 19 20 20 18 18 20 23 25 26 22 18 19 23 23 21 18 17 16 15 13 12 11 12 13 13 13 14 16 18 20 21 21 19 19 19 20 20 22 24 25 27 28 28 29 29 30 30 31 31 31 32 32 33 33 33 32 32 33 34 34 33 33 32 32 31 30 30 30 29 29 28 28 28 27
35 32 32 32 31 29 26 25 22 20 18 19 21 21 20 18 18 20 22 23 23 21 20 22 24 23 21 19 18 17 15 13 12 11 12 13 13 13 14 16 18 20 21 20 20 19 19 19 19 21 23 25 26 26 27 27 27 28 29 29 29 29 29 29 29 28 28 28 29 30 30 29 27 27 27 27 26 26 26 26 26 25 25 25 25 26
34 31 31 31 30 28 26 25 23 21 20 21 22 22 20 18 18 20 21 22 23 22 21 23 24 23 22 21 19 17 15 14 13 12 13 13 14 14 14 16 17 18 19 19 19 19 19 18 18 20 23 24 25 25 24 25 25 26 26 26 25 25 25 25 24 25 25 27 27 27 26 25 25 25 25 26 26 25 25 25 24 24 24 25 25 25
34 29 28 28 28 27 25 24 22 22 22 23 23 22 19 16 17 20 21 22 24 23 22 24 25 24 23 22 19 17 16 15 13 13 14 14 14 14 14 15 16 17 18 18 18 19 18 17 17 19 22 23 23 23 22 22 23 23 22 22 22 22 22 22 23 24 24 25 25 24 23 24 25 26 27 27 27 26 26 25 25 25 25 25 26 26
35 28 26 26 26 25 24 22 22 23 23 24 23 22 19 16 17 20 22 23 24 24 23 25 26 25 24 23 21 19 18 15 13 14 16 16 15 14 14 13 15 17 18 18 18 18 17 16 16 18 19 20 20 20 19 19 19 19 18 18 19 19 20 22 23 23 24 25 24 23 23 24 25 26 27 28 28 28 28 27 26 25 25 26 26 26
34 27 24 26 26 25 22 21 21 22 23 23 22 21 19 17 18 22 24 24 24 25 24 25 26 25 24 24 23 21 18 16 15 16 17 17 15 14 13 13 14 17 18 19 18 17 16 15 15 16 18 18 18 17 16 15 15 15 15 16 18 19 20 22 23 23 24 24 23 22 23 24 25 26 27 28 29 29 30 29 28 27 26 26 26 26
31 26 24 26 26 23 21 22 22 23 23 23 22 22 20 19 21 24 25 24 24 25 25 25 25 25 25 25 24 23 20 18 18 18 18 17 15 13 14 14 14 17 19 19 18 16 14 14 15 16 17 17 16 14 13 13 13 13 14 16 17 19 20 22 23 24 24 24 23 23 23 23 24 25 26 27 28 29 30 30 30 30 28 27 26 25
29 25 24 24 24 21 21 22 23 24 25 24 22 22 21 20 22 24 24 23 24 25 24 24 24 24 25 25 25 24 22 21 20 19 19 17 14 14 14 14 15 18 19 18 16 15 14 15 16 16 16 15 14 13 12 12 12 13 15 16 17 19 20 22 23 24 24 24 24 24 24 24 24 25 26 26 27 28 29 30 31 31 30 28 27 26
27 23 23 23 22 20 21 21 23 26 26 23 21 22 22 22 24 25 24 24 24 24 23 22 23 24 25 26 26 25 24 23 22 21 19 16 14 14 14 15 16 18 18 17 15 14 14 15 15 15 15 14 14 14 13 12 13 14 16 17 17 19 20 21 22 23 23 24 24 24 24 24 25 25 26 26 27 27 28 29 30 30 30 30 29 27
27 23 23 24 23 21 21 21 23 26 26 23 22 23 24 24 25 25 25 25 25 25 24 23 23 24 26 26 26 26 25 25 23 21 19 17 15 14 15 15 17 19 18 16 14 14 14 14 14 13 13 14 15 15 14 14 15 16 17 18 18 18 19 21 22 22 22 22 23 24 24 24 25 25 26 26 27 27 28 28 29 30 30 30 30 29
28 24 25 26 25 24 23 22 23 26 26 24 24 24 25 26 27 27 27 27 27 27 25 23 22 24 25 27 27 27 27 26 24 22 19 17 15 14 15 16 17 19 18 17 15 15 15 14 13 12 13 14 15 16 16 16 16 17 18 18 18 18 19 21 22 23 23 22 22 23 24 25 25 25 26 26 27 27 28 28 28 29 29 30 31 30
29 26 27 28 28 26 25 24 24 25 25 25 25 25 26 27 28 29 29 29 28 27 25 23 22 23 25 26 27 28 28 26 24 22 19 17 15 15 16 17 18 19 18 17 16 16 16 16 15 14 15 16 17 17 18 18 17 18 18 19 19 19 20 21 22 23 23 23 23 23 24 25 25 26 26 27 28 28 28 29 29 29 30 30 31 31
32 30 29 29 28 26 25 25 25 25 24 25 26 26 26 28 29 31 31 29 28 26 24 22 22 23 24 25 27 28 28 26 24 21 19 16 16 16 17 17 18 19 18 17 16 16 17 18 18 17 17 18 18 18 18 18 18 18 19 19 20 20 21 22 23 24 24 24 24 24 25 25 26 27 27 28 29 29 30 30 30 30 30 31 31 31
36 34 32 30 29 26 25 25 26 25 24 24 25 26 27 29 31 32 31 29 27 26 25 23 23 24 24 25 26 27 27 25 23 21 19 17 17 17 17 17 18 19 18 17 16 17 18 19 19 19 19 19 18 18 18 19 19 19 19 20 20 21 22 23 23 24 24 25 25 26 26 26 26 26 27 28 29 30 31 31 32 32 32 31 31 31
40 39 36 33 30 28 27 27 27 26 25 24 24 26 28 31 32 32 32 29 27 27 26 24 24 25 25 25 26 26 26 25 23 21 19 18 18 17 17 18 18 18 18 17 16 16 18 19 19 19 19 18 18 17 18 18 19 19 20 20 21 22 23 24 24 24 24 25 26 27 27 26 26 26 27 28 29 30 31 32 32 32 33 32 32 32
44 42 40 37 34 31 30 29 28 27 26 25 25 27 29 32 32 32 31 29 27 27 26 25 25 26 25 25 25 25 25 24 23 21 20 19 18 17 17 18 18 18 19 18 16 16 17 19 19 19 18 18 17 16 17 18 19 20 21 22 23 24 25 25 26 25 25 25 26 27 27 27 27 27 28 29 30 31 32 32 32 33 33 33 33 33
45 44 42 40 37 34 32 31 30 28 27 27 28 28 29 31 32 31 30 28 27 26 26 26 26 26 26 25 24 24 24 24 23 21 20 19 18 18 18 18 18 18 19 19 18 17 17 18 19 19 19 18 16 16 17 18 19 21 22 23 24 26 26 27 27 26 26 26 27 28 29 29 28 28 28 29 31 32 32 33 33 33 34 35 35 34
Wind_Direction
273 274 277 280 282 283 284 285 286 289 290 292 294 295 298 300 300 303 306 308 311 313 314 315 318 319 319 318 319 318 318 319 320 323 328 329 328 328 328 329 332 333 332 331 333 335 333 328 328 334 344 352 353 348 342 339 341 348 9 37 54 64 66 67 64 57 52 49 48 51 56 59 59 59 59 63 69 74 80 82 81 79 78 75 62 20
273 274 276 278 280 281 283 285 287 288 290 291 293 294 297 298 299 302 305 307 309 311 312 313 315 317 317 316 317 316 316 317 320 325 328 327 328 328 327 329 333 334 332 330 331 333 334 330 328 333 341 347 349 346 342 343 351 11 44 69 80 82 80 74 63 53 50 47 43 44 48 48 47 47 50 56 64 70 73 77 79 79 77 70 49 358
273 274 276 277 278 280 283 285 286 286 288 290 292 294 296 297 299 302 304 305 306 308 310 311 312 314 315 315 314 314 316 317 320 325 326 326 327 326 327 331 335 334 330 329 330 332 334 330 323 327 336 342 349 352 355 6 22 44 71 89 95 89 77 61 47 45 47 43 36 33 30 29 30 33 37 43 52 59 63 67 69 72 73 63 19 339
273 274 276 276 278 280 282 283 284 285 288 290 292 293 294 296 298 300 301 301 302 305 309 310 310 312 314 312 313 315 316 317 320 324 324 325 325 324 327 333 335 333 327 326 331 333 333 328 318 320 331 341 354 11 36 50 52 59 86 101 98 82 57 42 36 38 41 39 34 30 25 23 23 26 29 36 44 50 54 57 58 63 64 56 21 344
273 275 276 276 277 279 280 281 282 285 288 289 289 291 292 293 295 296 296 297 300 303 306 307 307 310 311 311 313 316 316 317 320 323 322 322 323 322 326 332 333 329 324 325 330 332 332 328 325 331 338 352 16 55 72 68 63 64 82 102 90 61 40 33 30 28 30 31 30 27 23 20 20 23 26 32 38 42 47 49 47 51 51 40 16 348
273 275 276 277 278 278 279 279 282 285 286 286 287 288 289 291 292 293 294 296 298 301 303 305 307 309 312 313 315 316 315 316 319 321 318 318 321 321 324 330 330 326 324 327 331 331 329 329 343 345 346 19 71 89 79 67 64 63 72 92 79 44 28 23 22 20 22 23 23 22 20 18 18 19 21 24 31 35 37 37 33 30 27 17 359 339
272 274 276 278 279 279 279 279 281 283 283 284 286 287 288 290 291 292 293 295 298 300 303 306 308 309 310 312 313 314 313 314 316 318 315 315 318 319 321 326 326 323 326 332 333 329 322 327 345 351 24 83 96 90 65 45 43 51 67 88 81 34 14 11 13 15 17 17 18 17 15 15 13 12 12 15 23 31 30 24 17 10 359 349 342 332
272 274 276 278 279 279 280 281 282 282 282 284 286 287 289 291 292 293 294 296 299 300 302 305 308 308 307 309 311 311 311 312 314 315 312 312 315 315 317 322 322 319 327 340 343 330 317 322 340 33 101 105 95 68 39 22 22 31 61 89 95 21 355 352 354 2 8 9 11 12 10 7 4 0 1 6 11 15 10 5 358 347 335 326 322 318
272 274 275 276 277 278 280 282 283 282 283 285 287 288 290 292 293 293 294 296 298 298 300 304 306 306 306 308 310 309 309 309 311 312 310 309 312 312 314 320 320 315 328 349 354 339 320 319 321 146 128 109 89 67 58 52 57 70 70 82 80 353 342 340 340 348 355 356 358 0 360 356 352 348 345 343 343 342 339 336 331 323 314 306 303 304
273 274 274 274 275 277 279 281 283 284 285 286 287 288 289 290 292 293 294 296 296 297 300 304 305 306 306 306 306 305 306 307 309 309 307 307 309 310 313 320 320 315 328 344 345 330 324 326 285 181 150 114 102 90 81 78 78 85 87 90 63 345 341 338 342 346 349 349 346 347 349 346 341 337 333 327 315 303 308 315 313 307 303 298 297 299
271 272 271 272 273 275 277 280 282 284 285 286 287 288 289 290 291 293 294 296 296 298 302 305 304 305 305 304 303 303 305 306 307 306 303 303 305 307 314 321 320 316 320 327 322 313 321 321 237 191 167 128 115 101 83 77 69 81 97 98 74 5 346 341 347 350 350 348 342 338 335 333 330 327 326 323 313 299 296 302 302 297 296 294 294 296
269 269 269 270 272 274 276 278 281 282 284 285 286 287 288 290 292 293 295 296 296 299 303 304 303 304 304 302 301 302 304 305 304 303 301 299 301 307 315 318 313 306 307 310 306 304 310 271 216 198 185 145 116 97 62 53 53 80 94 78 60 40 23 358 345 342 342 343 339 333 328 323 317 317 322 321 313 305 299 297 296 291 291 296 296 296
268 267 268 270 272 274 276 277 279 280 281 282 284 286 288 290 291 292 293 293 294 298 301 302 301 302 302 301 301 302 304 303 300 299 297 297 302 311 315 310 300 293 296 300 299 299 291 220 205 201 194 150 97 70 32 14 16 52 58 40 31 17 348 324 319 320 317 319 321 320 318 317 315 314 317 317 311 309 305 301 301 295 295 304 302 298
268 268 269 271 273 274 275 276 277 278 279 280 282 285 287 288 289 289 290 291 293 297 300 300 299 300 301 300 300 301 303 302 299 297 294 296 305 313 311 302 292 287 290 295 294 294 272 205 199 197 183 141 91 74 57 46 47 51 19 4 0 347 327 305 300 305 298 291 297 305 305 306 313 315 313 312 310 309 308 306 307 301 303 309 306 302
268 269 269 271 274 275 275 276 277 277 278 280 282 283 284 286 287 288 289 291 293 296 298 297 297 299 300 301 301 301 301 299 297 295 293 298 307 310 305 295 288 283 285 289 287 285 255 200 195 186 170 139 99 91 92 123 125 39 346 350 345 330 320 305 296 312 325 307 281 281 289 294 302 309 308 306 306 306 305 303 302 301 306 311 309 308
268 269 270 272 273 273 275 276 276 277 279 280 281 282 283 285 286 287 289 291 294 296 296 296 297 299 301 301 301 301 299 297 295 293 293 299 306 305 298 288 281 279 280 282 279 276 248 203 189 176 168 148 120 142 166 140 105 15 7 358 335 318 318 324 323 329 347 343 313 277 275 279 286 297 302 302 303 304 301 300 301 303 309 315 314 313
268 270 272 272 272 272 273 274 275 277 278 279 280 282 283 284 284 286 288 290 293 295 295 296 297 299 300 300 299 298 295 294 292 291 294 299 303 300 291 281 276 275 276 276 271 268 250 211 188 176 175 169 168 197 212 224 329 2 19 9 346 336 339 344 338 331 330 328 318 300 285 273 274 286 293 297 300 301 299 299 302 305 312 318 315 312
268 269 271 271 272 272 273 273 274 276 277 278 280 281 281 281 282 284 287 290 292 293 294 294 296 297 297 297 296 294 291 289 288 290 293 297 299 293 286 280 275 273 273 271 265 261 253 223 195 185 189 193 194 209 239 280 304 331 23 7 353 354 351 336 329 332 324 307 296 293 285 268 268 277 283 292 297 297 297 297 300 306 313 317 313 310
266 267 268 269 270 271 272 272 273 274 275 277 278 278 278 279 282 284 287 290 292 292 293 294 295 295 294 294 292 290 288 285 286 290 293 294 293 288 283 279 274 273 272 270 263 257 256 236 207 198 201 207 208 221 256 281 290 272 339 346 342 3 352 327 328 347 322 295 281 282 276 258 261 271 279 288 293 293 294 295 301 308 312 313 310 308
264 265 266 266 267 268 270 271 272 272 273 274 275 276 277 280 283 286 289 291 292 293 293 294 293 292 292 291 289 287 285 284 287 291 291 289 288 285 282 277 272 273 273 272 268 260 259 246 220 210 209 214 216 221 258 282 272 246 275 308 322 19 342 309 326 351 287 263 266 282 286 270 264 267 275 283 287 292 296 300 306 310 310 308 306 304
263 263 264 264 265 266 267 268 270 270 271 272 273 275 278 281 285 287 288 289 291 291 291 290 290 290 290 289 287 284 283 284 289 290 286 284 284 282 279 275 272 274 275 277 275 270 265 251 227 217 213 215 215 218 258 278 255 249 282 300 298 339 307 283 279 236 227 231 256 296 310 307 275 266 273 282 291 297 301 304 306 305 304 304 302 302
261 262 263 263 264 264 265 266 268 269 271 272 273 276 279 282 285 286 285 285 286 287 287 287 288 287 286 285 282 279 282 287 290 287 283 282 281 279 277 275 274 275 277 278 278 276 270 255 230 215 211 215 219 227 256 262 234 248 274 284 286 295 299 287 258 239 236 239 260 297 310 302 279 275 280 288 295 297 298 300 299 298 299 299 298 298
259 260 261 262 263 264 265 266 267 268 270 271 273 277 280 281 281 281 281 281 284 284 284 285 283 282 282 280 277 278 285 290 286 282 280 279 278 276 276 276 276 276 276 275 276 275 270 258 236 217 217 228 237 244 255 245 222 239 259 259 270 279 288 290 270 259 255 252 256 271 283 282 278 280 283 287 291 292 294 296 296 295 295 295 294 295
254 256 257 258 259 261 263 264 265 266 268 271 274 277 278 279 278 279 280 283 285 284 281 277 276 277 278 276 276 281 285 282 277 276 275 274 274 273 273 273 274 275 274 273 274 273 270 260 239 223 232 250 260 261 257 245 232 236 249 255 259 261 269 279 277 274 272 265 262 267 275 278 278 280 283 287 291 293 295 297 296 296 295 294 294 295
251 253 254 255 256 256 258 260 262 264 268 271 274 276 277 278 279 280 282 283 284 282 278 274 273 274 274 273 276 279 276 270 269 270 269 269 270 269 271 272 272 274 273 272 272 272 269 259 238 230 249 265 271 268 258 250 244 240 244 250 255 261 267 269 272 280 282 279 277 277 279 281 282 285 289 292 294 295 296 296 295 294 294 294 294 294
253 255 257 258 260 261 262 263 264 265 268 270 273 275 275 275 275 277 279 281 281 279 277 274 272 270 268 270 274 272 266 263 263 264 264 266 269 270 271 273 274 275 275 272 272 270 266 257 243 246 265 274 275 268 256 251 250 249 251 254 256 264 270 265 267 279 286 285 286 286 285 286 289 292 293 294 295 295 294 294 294 293 292 291 290 290
253 254 256 257 260 263 265 266 265 264 265 266 269 269 269 269 271 274 276 276 274 272 272 271 269 267 266 268 267 263 260 259 259 261 263 266 270 272 274 276 277 278 278 275 273 270 263 256 252 258 271 277 276 267 255 251 252 251 252 257 262 268 272 269 269 275 280 282 284 284 283 284 287 289 290 291 292 292 292 292 290 288 287 286 286 288
252 253 254 255 256 256 258 258 258 258 259 260 260 261 263 266 269 271 272 268 265 265 266 265 264 265 266 264 259 256 256 257 258 260 264 268 274 277 278 279 279 280 281 278 274 272 266 259 258 264 271 276 277 269 258 253 256 260 260 261 265 269 272 274 275 277 280 283 286 288 288 288 288 288 289 290 290 289 289 287 285 284 284 285 287 288
253 254 254 254 253 252 251 252 253 255 256 257 258 260 262 265 267 268 266 261 260 261 261 261 262 264 265 259 252 251 253 255 257 260 266 273 279 281 280 279 280 281 282 279 274 272 268 264 263 267 273 276 276 272 265 259 258 262 268 273 277 279 279 279 280 283 285 288 292 294 295 294 291 289 289 289 289 287 286 284 284 284 285 286 288 289
252 253 253 252 252 251 250 251 254 257 260 262 263 264 264 263 261 259 257 256 257 259 260 261 263 262 258 253 250 249 249 252 255 260 269 277 280 280 279 278 280 281 281 279 274 270 268 266 266 269 274 276 275 271 269 267 265 264 267 273 278 283 285 286 287 288 289 291 293 294 295 294 291 288 288 290 290 288 286 286 286 286 287 288 289 292
246 248 249 250 250 250 251 252 253 256 260 263 266 267 264 258 252 250 250 251 254 256 258 260 260 255 251 249 249 247 243 246 252 260 269 276 278 279 279 281 283 285 283 277 271 267 267 266 266 270 273 275 274 273 272 271 271 272 272 275 280 283 286 288 290 291 291 292 293 294 295 294 291 289 289 290 291 291 290 289 289 289 290 291 294 297
240 243 246 248 249 250 251 251 251 252 255 257 260 259 255 250 247 246 246 245 246 249 251 253 252 249 247 248 248 244 240 242 252 260 266 272 276 278 282 287 291 292 289 282 272 267 266 266 267 270 273 274 274 274 273 272 271 272 274 277 281 285 287 289 290 291 292 293 294 294 294 293 291 290 290 290 291 291 291 291 291 293 296 300 303 307
237 239 242 244 245 245 246 246 245 245 247 248 248 247 245 244 244 245 244 241 243 246 248 248 247 246 245 247 248 246 240 242 250 258 264 271 276 281 287 294 297 296 293 288 280 273 270 270 271 273 275 277 277 276 276 276 275 275 275 277 280 283 286 289 291 293 294 294 295 294 293 292 291 292 292 292 292 292 293 295 299 304 309 312 315 316
236 237 239 241 242 242 243 245 243 240 240 241 241 241 242 242 243 246 248 247 250 252 249 243 243 243 241 243 247 246 242 243 250 259 267 275 281 287 294 297 297 296 294 291 287 283 279 277 278 280 281 281 281 281 281 281 281 281 282 283 284 286 288 291 293 294 295 295 295 294 295 295 296 296 296 295 296 298 302 308 313 317 319 319 319 320
236 236 238 240 241 240 240 242 242 241 240 241 241 242 244 245 244 246 250 253 256 255 245 238 239 240 238 238 242 244 245 248 253 259 269 278 284 290 294 294 294 293 293 294 293 290 288 286 285 287 288 287 285 284 284 284 285 286 287 288 289 290 292 293 294 294 295 296 298 300 302 302 302 303 303 306 309 313 317 321 322 322 322 323 325 327
236 236 238 240 241 241 239 238 238 239 240 241 243 245 246 247 246 246 249 253 255 250 240 236 238 239 237 236 237 242 247 251 253 259 269 277 284 289 291 291 290 290 291 293 294 292 289 289 290 291 290 289 289 287 286 287 288 289 290 290 292 293 294 294 294 295 299 303 307 310 311 312 314 318 321 325 327 328 328 327 326 326 329 333 336 338
237 235 237 241 242 243 242 239 236 235 236 239 243 246 247 249 250 250 250 250 250 246 239 236 237 238 238 237 238 242 247 249 253 261 268 275 282 287 289 289 289 292 294 295 295 292 289 290 293 294 292 290 289 288 288 289 289 290 291 292 294 295 294 295 298 303 308 315 319 321 324 329 335 340 343 344 342 339 335 333 334 337 341 344 346 347
241 236 236 240 242 243 243 241 237 234 233 237 242 245 246 248 251 251 250 248 247 244 239 236 237 238 239 241 242 245 247 249 256 265 270 274 278 281 285 290 296 300 302 302 300 296 293 295 298 298 295 291 289 287 286 286 287 289 292 294 295 295 298 303 309 314 320 326 329 332 338 346 352 355 356 356 354 350 346 343 343 346 349 350 351 351
244 240 237 239 241 242 242 242 239 236 233 235 239 241 241 243 246 248 248 247 247 245 241 239 239 239 241 243 246 247 249 252 261 268 269 270 272 276 285 296 305 309 308 307 305 300 297 299 300 298 295 292 289 287 285 286 289 292 294 296 297 301 308 314 318 323 328 333 335 340 347 355 359 1 1 2 1 360 357 354 351 351 352 353 354 352
244 242 238 239 241 241 241 241 241 239 235 233 235 236 236 236 239 241 242 243 246 246 244 241 241 242 243 245 247 249 251 254 262 267 268 268 269 276 289 299 308 313 313 311 308 305 303 302 298 295 294 293 291 289 288 290 292 294 297 298 302 309 316 321 325 329 332 334 338 344 350 356 360 1 2 3 3 3 2 1 359 356 354 353 353 352
242 238 236 239 241 241 240 239 240 240 236 230 227 229 229 230 233 237 239 240 243 245 245 243 242 242 244 246 248 249 251 255 262 267 269 270 273 280 291 300 310 316 315 313 310 309 308 304 298 294 292 292 293 294 294 294 295 296 298 301 308 315 321 325 328 330 331 335 339 344 349 354 357 358 360 0 0 1 2 3 3 1 357 352 349 349
238 232 231 236 238 237 235 235 237 239 236 229 224 223 224 227 232 237 238 237 239 243 244 243 242 241 244 246 248 249 251 254 261 267 270 271 277 286 294 304 315 319 317 313 311 310 309 303 298 294 291 290 294 297 299 298 297 296 299 305 312 319 323 326 328 329 330 333 337 341 345 349 351 354 356 357 357 358 358 360 2 1 359 354 348 345
235 227 227 233 233 231 229 230 234 237 237 231 225 222 221 223 229 233 234 234 237 241 241 240 240 241 243 245 247 248 250 254 260 265 268 271 278 288 297 308 317 319 317 315 314 312 310 305 300 295 291 292 297 301 303 302 299 297 301 308 314 319 322 323 324 326 328 330 333 336 339 343 346 349 351 353 354 354 355 355 357 358 357 355 350 346
234 227 226 229 229 227 226 226 230 235 236 232 228 224 221 221 225 229 230 231 235 238 237 235 236 239 241 244 246 248 249 253 258 262 265 270 277 288 298 308 315 317 317 318 320 319 314 311 307 301 296 296 300 303 304 303 301 300 304 309 313 317 318 318 319 320 323 326 328 329 332 336 340 344 347 349 351 352 352 352 352 353 353 353 351 347
231 225 223 226 227 225 224 224 228 234 235 233 232 229 225 224 225 228 229 230 233 235 234 232 234 237 240 242 245 246 248 252 257 261 263 268 276 288 297 304 311 316 317 318 320 320 318 316 312 306 300 299 301 302 303 302 301 302 305 308 311 313 313 313 313 315 317 321 323 324 326 330 334 339 343 346 348 349 349 349 349 349 349 349 349 347
225 222 221 224 227 226 225 225 229 234 236 234 233 232 231 229 228 230 231 230 232 235 235 234 235 237 239 241 243 244 247 251 256 260 263 268 276 287 295 301 307 313 317 318 318 318 318 316 313 306 301 299 300 301 302 301 301 301 303 305 308 309 308 308 309 311 313 316 319 321 323 326 329 334 338 341 344 345 346 346 346 346 345 345 346 346
221 221 221 225 228 228 228 230 233 236 238 237 235 233 234 234 233 233 234 233 233 234 235 237 239 238 237 238 240 243 245 249 254 258 262 267 276 285 292 297 304 311 316 317 317 316 317 317 312 306 300 297 298 300 300 300 300 301 301 302 304 305 304 305 307 309 311 313 316 318 321 324 327 330 334 336 338 339 341 343 342 342 341 342 342 342
220 221 222 224 227 228 229 233 236 237 239 240 239 236 235 236 236 236 236 237 236 234 234 237 242 241 238 237 238 241 243 247 252 257 260 266 274 282 288 295 302 308 314 317 318 318 318 317 313 307 301 297 296 297 298 298 300 300 300 300 301 301 301 303 306 308 310 312 314 316 319 322 325 327 329 331 332 334 336 337 337 337 338 338 339 338
221 221 222 223 225 227 229 232 236 239 239 241 242 239 237 237 237 237 237 237 237 236 234 236 242 244 241 239 238 239 241 246 251 255 259 266 273 279 286 294 300 306 311 315 319 320 318 317 315 311 305 300 297 296 296 297 298 299 298 298 298 298 299 302 305 308 310 312 313 314 316 319 323 325 326 328 329 330 330 331 333 334 335 335 335 334
224 222 222 222 222 224 228 231 234 237 239 240 242 242 240 239 239 239 237 236 237 237 236 236 242 246 245 243 241 240 241 246 251 255 259 265 272 278 285 292 298 305 308 311 318 321 317 315 315 312 308 304 300 297 297 296 297 297 297 297 297 297 299 301 304 307 309 310 312 313 314 317 320 323 326 327 326 325 324 326 329 330 331 331 331 331
225 223 222 221 220 222 226 229 231 234 236 239 243 245 246 244 243 243 241 238 237 239 238 238 242 246 248 246 244 243 244 248 251 255 259 265 271 278 284 288 295 302 305 309 317 321 318 314 312 310 307 304 301 299 298 297 296 296 297 296 296 298 300 301 304 306 307 309 311 312 314 315 317 320 323 324 324 323 322 324 325 327 327 327 328 328
Height
10985 10986 10986 10985 10985 10985 10985 10985 10984 10984 10983 10984 10983 10983 10982 10981 10980 10979 10977 10976 10977 10978 10976 10974 10974 10973 10970 10967 10964 10961 10957 10955 10954 10952 10951 10949 10947 10946 10943 10942 10940 10938 10936 10934 10932 10931 10929 10927 10925 10924 10923 10921 10920 10918 10917 10915 10914 10914 10913 10913 10912 10912 10912 10911 10910 10909 10908 10908 10907 10907 10906 10906 10905 10904 10903 10901 10901 10901 10901 10901 10902 10903 10904 10905 10906 10907
10980 10983 10984 10983 10982 10981 10982 10982 10982 10981 10980 10981 10980 10980 10980 10979 10977 10978 10976 10975 10975 10975 10974 10972 10971 10971 10969 10966 10962 10959 10955 10953 10951 10951 10949 10948 10946 10945 10943 10941 10939 10937 10934 10933 10931 10930 10929 10927 10925 10924 10923 10921 10920 10918 10917 10915 10915 10915 10914 10913 10913 10912 10912 10910 10909 10909 10908 10908 10908 10909 10908 10907 10906 10905 10904 10903 10902 10901 10901 10900 10901 10901 10902 10904 10905 10905
10975 10978 10981 10980 10979 10978 10979 10979 10978 10978 10978 10978 10978 10977 10978 10976 10975 10976 10974 10973 10972 10972 10972 10970 10968 10968 10966 10963 10961 10957 10953 10951 10949 10949 10948 10946 10944 10943 10942 10940 10938 10936 10933 10931 10930 10929 10928 10927 10925 10924 10923 10921 10920 10918 10917 10916 10916 10916 10916 10915 10913 10912 10912 10911 10909 10908 10908 10908 10908 10908 10908 10907 10906 10905 10904 10903 10902 10901 10901 10900 10900 10900 10901 10902 10903 10903
10970 10974 10977 10976 10975 10976 10976 10976 10975 10975 10976 10976 10975 10975 10974 10974 10974 10973 10972 10970 10970 10970 10971 10968 10965 10966 10964 10961 10958 10955 10951 10949 10947 10946 10946 10945 10943 10941 10940 10939 10937 10935 10932 10930 10929 10927 10927 10926 10925 10924 10923 10922 10921 10919 10919 10919 10918 10918 10917 10916 10915 10913 10912 10911 10910 10909 10908 10908 10908 10907 10907 10906 10905 10903 10902 10901 10901 10900 10900 10899 10899 10899 10899 10900 10901 10901
10966 10970 10971 10971 10973 10973 10973 10972 10972 10973 10973 10972 10972 10972 10971 10971 10971 10970 10969 10968 10968 10969 10969 10968 10964 10962 10962 10958 10955 10953 10949 10947 10946 10944 10943 10942 10941 10939 10938 10938 10936 10934 10932 10929 10928 10927 10926 10925 10925 10924 10924 10923 10922 10921 10921 10920 10920 10919 10918 10917 10915 10914 10913 10912 10911 10909 10908 10907 10906 10906 10906 10905 10904 10903 10901 10901 10900 10899 10899 10898 10898 10898 10899 10899 10900 10900
10965 10966 10966 10966 10969 10969 10969 10969 10970 10971 10969 10968 10969 10969 10968 10969 10969 10967 10966 10966 10967 10967 10967 10967 10963 10959 10958 10955 10952 10950 10947 10944 10944 10943 10940 10939 10939 10937 10936 10936 10935 10933 10931 10929 10928 10926 10926 10926 10925 10925 10925 10924 10923 10922 10922 10921 10920 10919 10918 10917 10915 10914 10912 10911 10910 10909 10907 10906 10905 10905 10905 10905 10904 10903 10902 10901 10900 10900 10899 10899 10899 10899 10899 10899 10899 10899
10963 10963 10962 10962 10962 10963 10963 10965 10967 10968 10965 10963 10965 10966 10965 10966 10966 10965 10964 10964 10964 10964 10964 10964 10963 10958 10955 10953 10951 10948 10945 10942 10942 10941 10938 10936 10936 10935 10934 10934 10933 10932 10931 10929 10927 10926 10926 10926 10926 10926 10925 10924 10923 10922 10921 10919 10919 10918 10917 10915 10914 10912 10911 10910 10909 10908 10907 10905 10904 10903 10903 10903 10903 10903 10902 10901 10900 10900 10900 10900 10900 10900 10899 10898 10897 10897
10960 10961 10960 10959 10957 10957 10958 10959 10963 10964 10961 10960 10961 10962 10961 10962 10963 10962 10961 10962 10961 10961 10960 10960 10960 10957 10953 10951 10950 10947 10944 10941 10939 10939 10936 10935 10934 10933 10932 10932 10931 10930 10929 10928 10927 10926 10926 10926 10926 10926 10925 10924 10922 10921 10919 10918 10917 10916 10915 10914 10912 10911 10910 10909 10908 10907 10906 10905 10904 10903 10902 10902 10902 10902 10901 10900 10898 10898 10898 10898 10898 10898 10898 10897 10896 10895
10956 10958 10957 10955 10953 10953 10953 10954 10956 10958 10958 10958 10957 10958 10958 10958 10959 10958 10958 10958 10958 10957 10957 10958 10957 10955 10952 10949 10947 10945 10942 10940 10938 10936 10934 10933 10932 10931 10931 10931 10930 10929 10928 10927 10926 10925 10925 10925 10926 10925 10925 10923 10921 10919 10918 10917 10915 10914 10913 10913 10912 10910 10909 10909 10908 10907 10906 10905 10904 10903 10902 10901 10900 10899 10899 10898 10897 10895 10894 10894 10895 10895 10895 10894 10894 10893
10953 10954 10952 10950 10950 10950 10950 10950 10951 10953 10954 10954 10954 10954 10954 10954 10955 10954 10954 10954 10954 10953 10954 10955 10954 10953 10950 10947 10945 10943 10941 10938 10936 10934 10932 10931 10930 10929 10929 10930 10929 10928 10927 10926 10925 10924 10924 10925 10925 10924 10923 10921 10920 10919 10918 10916 10915 10914 10913 10913 10912 10911 10910 10909 10908 10907 10906 10905 10903 10902 10901 10899 10898 10896 10896 10896 10895 10894 10892 10891 10891 10891 10891 10891 10890 10890
10949 10949 10947 10945 10947 10947 10947 10948 10948 10949 10949 10949 10950 10950 10950 10950 10951 10950 10950 10950 10949 10948 10951 10952 10950 10949 10948 10944 10942 10940 10939 10936 10934 10932 10930 10929 10929 10928 10928 10929 10928 10927 10925 10924 10923 10922 10922 10923 10923 10922 10921 10920 10919 10918 10918 10917 10915 10914 10913 10913 10912 10911 10910 10909 10908 10906 10904 10903 10902 10900 10898 10897 10897 10895 10894 10893 10893 10892 10891 10889 10888 10888 10888 10888 10887 10886
10945 10943 10942 10942 10944 10945 10945 10946 10946 10946 10945 10945 10945 10945 10945 10946 10947 10947 10947 10946 10944 10944 10947 10947 10945 10945 10945 10941 10938 10937 10936 10934 10931 10929 10928 10927 10927 10928 10928 10927 10926 10925 10923 10922 10921 10920 10921 10921 10920 10920 10920 10919 10919 10919 10918 10918 10917 10916 10915 10913 10912 10911 10910 10908 10904 10901 10900 10899 10899 10898 10897 10895 10894 10893 10893 10892 10890 10889 10888 10887 10886 10886 10886 10886 10885 10883
10938 10937 10937 10939 10940 10942 10942 10943 10943 10943 10943 10942 10942 10942 10942 10943 10944 10944 10944 10943 10941 10941 10943 10942 10941 10940 10940 10938 10934 10933 10932 10931 10928 10926 10925 10924 10926 10927 10926 10925 10924 10922 10921 10919 10919 10919 10919 10919 10918 10918 10919 10920 10920 10920 10919 10919 10918 10917 10916 10914 10912 10909 10905 10901 10897 10897 10899 10899 10897 10896 10895 10894 10892 10891 10891 10890 10888 10886 10884 10883 10883 10883 10883 10883 10882 10881
10931 10931 10934 10935 10937 10939 10938 10939 10939 10939 10939 10939 10939 10940 10940 10940 10940 10940 10940 10941 10939 10939 10939 10938 10936 10936 10935 10933 10931 10929 10928 10926 10925 10923 10922 10923 10924 10925 10924 10922 10921 10920 10919 10918 10917 10917 10917 10917 10916 10917 10919 10920 10920 10920 10919 10918 10917 10916 10914 10912 10908 10904 10899 10895 10894 10897 10900 10900 10898 10897 10896 10893 10891 10889 10889 10887 10885 10883 10881 10879 10879 10879 10879 10880 10879 10878
10925 10926 10929 10933 10934 10934 10933 10934 10935 10934 10935 10936 10936 10937 10936 10936 10936 10936 10936 10937 10937 10937 10935 10933 10931 10931 10931 10929 10927 10925 10924 10922 10921 10920 10919 10921 10922 10922 10921 10919 10918 10918 10917 10916 10915 10915 10915 10915 10915 10916 10918 10920 10920 10918 10918 10916 10915 10913 10912 10909 10905 10902 10900 10898 10898 10899 10898 10896 10896 10897 10897 10895 10892 10889 10887 10885 10882 10880 10878 10876 10876 10877 10877 10877 10877 10876
10921 10921 10925 10930 10930 10929 10929 10929 10929 10929 10930 10931 10932 10932 10932 10933 10932 10932 10932 10933 10933 10933 10931 10929 10927 10926 10926 10925 10923 10921 10920 10918 10917 10917 10917 10918 10919 10919 10918 10916 10916 10916 10915 10914 10913 10913 10913 10913 10914 10916 10918 10919 10918 10916 10915 10914 10913 10912 10909 10907 10904 10905 10904 10902 10901 10900 10898 10896 10895 10896 10898 10897 10894 10889 10886 10883 10880 10877 10875 10873 10872 10873 10874 10874 10873 10872
10917 10917 10921 10925 10925 10925 10925 10925 10925 10925 10925 10926 10928 10928 10928 10928 10928 10928 10929 10930 10931 10930 10927 10925 10923 10923 10921 10920 10919 10918 10916 10915 10914 10914 10915 10916 10916 10915 10914 10913 10913 10913 10912 10912 10910 10910 10910 10912 10914 10915 10917 10917 10915 10913 10913 10912 10912 10911 10908 10906 10905 10906 10904 10902 10902 10901 10898 10896 10895 10893 10893 10892 10890 10887 10884 10882 10879 10876 10872 10870 10868 10868 10869 10870 10870 10868
10914 10914 10917 10919 10919 10920 10920 10920 10920 10921 10921 10922 10923 10924 10924 10924 10924 10925 10926 10927 10928 10927 10924 10922 10920 10919 10918 10916 10915 10914 10912 10910 10910 10912 10912 10913 10912 10911 10910 10910 10910 10910 10909 10908 10907 10907 10909 10911 10914 10914 10914 10914 10912 10912 10912 10911 10910 10910 10907 10904 10904 10904 10901 10901 10902 10897 10893 10894 10891 10885 10883 10883 10883 10883 10882 10880 10878 10875 10871 10868 10866 10866 10866 10866 10866 10865
10910 10910 10912 10913 10914 10914 10914 10915 10916 10916 10917 10918 10918 10918 10919 10920 10921 10922 10923 10924 10924 10923 10921 10918 10916 10914 10913 10912 10910 10909 10908 10906 10907 10909 10910 10909 10909 10908 10908 10908 10908 10907 10905 10904 10904 10905 10908 10911 10912 10912 10911 10911 10911 10911 10910 10909 10909 10909 10907 10904 10903 10903 10900 10900 10900 10894 10893 10896 10889 10879 10879 10880 10881 10882 10881 10879 10877 10874 10870 10867 10865 10864 10864 10864 10863 10861
10904 10905 10907 10908 10909 10909 10909 10910 10910 10911 10913 10914 10913 10913 10915 10917 10919 10919 10919 10920 10920 10919 10917 10915 10911 10909 10908 10908 10906 10905 10904 10903 10905 10907 10907 10906 10906 10905 10906 10906 10905 10903 10902 10901 10901 10904 10907 10909 10910 10909 10909 10909 10909 10909 10908 10908 10908 10907 10907 10904 10902 10903 10901 10899 10902 10898 10893 10891 10883 10878 10879 10881 10883 10882 10880 10878 10876 10873 10869 10866 10864 10862 10861 10861 10859 10857
10899 10900 10902 10902 10904 10905 10905 10905 10905 10905 10908 10909 10909 10910 10912 10914 10916 10916 10916 10916 10916 10915 10913 10911 10908 10905 10904 10903 10903 10901 10900 10900 10903 10904 10904 10903 10903 10903 10903 10903 10902 10901 10899 10898 10899 10903 10905 10907 10907 10907 10907 10907 10907 10907 10906 10906 10907 10907 10907 10903 10901 10902 10900 10900 10903 10895 10879 10875 10878 10879 10880 10881 10882 10881 10878 10876 10874 10871 10868 10865 10863 10861 10860 10859 10857 10854
10895 10896 10897 10898 10900 10901 10900 10901 10901 10901 10903 10905 10906 10907 10909 10911 10912 10912 10911 10911 10911 10910 10908 10907 10904 10901 10900 10900 10899 10898 10898 10899 10901 10901 10901 10901 10901 10901 10901 10900 10900 10899 10897 10896 10897 10900 10903 10904 10905 10905 10905 10905 10905 10905 10905 10905 10906 10906 10905 10902 10900 10899 10896 10896 10899 10892 10879 10877 10880 10880 10880 10883 10883 10879 10877 10875 10873 10871 10869 10865 10862 10860 10858 10857 10854 10851
10890 10891 10892 10894 10896 10897 10896 10897 10897 10898 10899 10901 10902 10905 10906 10907 10908 10908 10907 10907 10907 10906 10905 10903 10900 10897 10897 10896 10895 10895 10896 10898 10899 10899 10899 10899 10898 10898 10898 10898 10898 10897 10895 10894 10895 10898 10899 10901 10903 10903 10904 10904 10903 10904 10904 10903 10905 10905 10903 10900 10897 10894 10891 10891 10892 10892 10889 10887 10886 10884 10884 10885 10883 10878 10876 10874 10872 10871 10868 10865 10862 10859 10857 10854 10851 10848
10885 10885 10887 10889 10891 10892 10892 10893 10893 10894 10895 10897 10900 10902 10902 10903 10904 10904 10903 10903 10903 10902 10900 10898 10895 10894 10894 10893 10893 10894 10895 10896 10896 10896 10897 10897 10896 10896 10897 10897 10896 10895 10894 10893 10893 10895 10897 10899 10901 10902 10902 10902 10902 10902 10902 10902 10902 10902 10900 10898 10894 10890 10889 10889 10890 10890 10890 10889 10888 10888 10887 10884 10881 10878 10876 10873 10871 10868 10865 10862 10860 10857 10854 10851 10847 10844
10881 10881 10883 10885 10887 10888 10888 10889 10890 10891 10892 10895 10897 10898 10899 10900 10900 10900 10900 10900 10899 10898 10896 10894 10892 10892 10891 10890 10891 10893 10893 10893 10894 10894 10895 10895 10895 10895 10895 10895 10895 10894 10893 10893 10892 10893 10895 10897 10899 10901 10901 10901 10901 10901 10900 10899 10900 10899 10898 10896 10893 10890 10890 10890 10890 10890 10890 10889 10889 10888 10885 10882 10879 10876 10873 10871 10868 10866 10863 10860 10858 10854 10851 10846 10843 10839
10878 10878 10879 10881 10883 10885 10886 10887 10888 10890 10891 10892 10894 10895 10895 10896 10896 10896 10896 10896 10896 10894 10892 10890 10889 10888 10887 10888 10890 10891 10891 10892 10892 10893 10894 10894 10894 10894 10894 10894 10893 10893 10892 10892 10891 10892 10893 10895 10897 10899 10899 10899 10899 10899 10898 10897 10897 10897 10896 10894 10892 10891 10890 10890 10889 10888 10888 10886 10886 10884 10881 10877 10875 10873 10870 10867 10865 10863 10860 10857 10854 10850 10846 10842 10838 10834
10875 10874 10875 10878 10880 10882 10885 10886 10887 10888 10888 10889 10890 10891 10891 10892 10893 10893 10893 10893 10892 10890 10888 10887 10885 10885 10885 10887 10889 10889 10890 10890 10891 10892 10892 10893 10892 10892 10893 10892 10891 10892 10892 10891 10890 10890 10891 10893 10895 10896 10897 10897 10897 10897 10897 10895 10895 10894 10894 10893 10891 10890 10889 10889 10888 10887 10885 10883 10882 10880 10877 10875 10873 10870 10866 10863 10861 10858 10855 10852 10849 10845 10841 10837 10832 10828
10871 10870 10871 10874 10877 10879 10881 10882 10883 10883 10884 10885 10886 10886 10887 10888 10889 10890 10889 10889 10888 10886 10885 10883 10881 10882 10884 10887 10887 10887 10888 10889 10889 10890 10890 10890 10890 10891 10890 10889 10889 10890 10891 10890 10889 10889 10890 10892 10893 10894 10894 10894 10895 10895 10895 10894 10892 10892 10891 10891 10890 10889 10888 10887 10886 10885 10883 10880 10878 10875 10873 10872 10870 10867 10863 10860 10857 10854 10850 10847 10843 10839 10835 10830 10826 10822
10867 10866 10868 10871 10874 10876 10877 10878 10878 10879 10880 10881 10882 10883 10884 10885 10885 10886 10885 10884 10883 10882 10880 10879 10879 10880 10883 10884 10884 10885 10887 10887 10887 10888 10888 10888 10889 10889 10888 10887 10887 10889 10889 10889 10888 10887 10887 10889 10891 10891 10891 10891 10892 10893 10893 10892 10890 10889 10889 10888 10887 10887 10886 10885 10884 10882 10880 10877 10874 10870 10867 10866 10864 10862 10859 10856 10852 10849 10845 10841 10837 10833 10828 10824 10820 10816
10863 10863 10864 10868 10870 10872 10873 10874 10876 10877 10878 10879 10880 10881 10882 10882 10882 10882 10881 10880 10879 10878 10877 10876 10878 10879 10880 10880 10882 10884 10886 10886 10886 10887 10887 10887 10887 10886 10885 10885 10885 10887 10887 10887 10886 10885 10884 10886 10888 10889 10888 10888 10889 10889 10890 10889 10888 10887 10886 10885 10884 10884 10883 10882 10880 10879 10877 10874 10871 10868 10864 10861 10859 10856 10853 10850 10846 10842 10838 10834 10831 10827 10822 10818 10814 10810
10858 10858 10861 10864 10867 10869 10871 10872 10874 10875 10876 10877 10878 10879 10880 10880 10879 10878 10877 10877 10876 10874 10874 10874 10876 10877 10877 10877 10880 10883 10884 10885 10886 10886 10886 10885 10885 10884 10883 10883 10883 10884 10885 10885 10885 10883 10882 10883 10885 10885 10885 10885 10885 10885 10886 10886 10886 10885 10883 10882 10881 10880 10879 10877 10876 10874 10872 10870 10867 10864 10861 10857 10854 10851 10847 10844 10840 10836 10832 10828 10824 10820 10816 10812 10808 10805
10853 10855 10858 10862 10864 10867 10868 10870 10872 10873 10874 10875 10876 10877 10878 10877 10876 10875 10875 10874 10872 10871 10871 10872 10874 10874 10874 10875 10878 10880 10882 10884 10884 10884 10884 10883 10883 10882 10881 10881 10881 10882 10883 10883 10883 10881 10880 10881 10882 10882 10881 10882 10881 10881 10882 10882 10882 10881 10880 10879 10878 10877 10875 10874 10872 10870 10868 10866 10863 10860 10856 10853 10849 10845 10842 10838 10834 10830 10826 10822 10818 10813 10809 10805 10802 10799
10849 10853 10856 10859 10862 10864 10865 10867 10870 10871 10872 10873 10874 10874 10874 10874 10874 10873 10872 10871 10869 10868 10869 10871 10872 10872 10872 10874 10876 10878 10880 10881 10882 10882 10882 10882 10881 10880 10879 10879 10879 10880 10880 10881 10880 10879 10878 10878 10878 10878 10878 10878 10878 10878 10878 10879 10879 10878 10877 10876 10875 10874 10872 10870 10868 10866 10864 10861 10858 10855 10852 10848 10844 10840 10836 10832 10828 10824 10820 10815 10811 10807 10803 10800 10797 10794
10847 10850 10853 10856 10859 10861 10863 10865 10868 10869 10870 10870 10871 10871 10871 10871 10871 10871 10870 10869 10867 10867 10869 10870 10869 10870 10871 10873 10874 10876 10878 10879 10880 10880 10880 10880 10879 10879 10878 10878 10878 10878 10878 10878 10878 10876 10875 10875 10875 10875 10875 10875 10874 10874 10874 10874 10874 10874 10873 10872 10872 10870 10868 10866 10864 10862 10859 10857 10854 10850 10847 10843 10839 10835 10831 10827 10822 10818 10814 10810 10806 10803 10800 10797 10794 10792
10845 10848 10850 10853 10856 10859 10861 10863 10866 10868 10869 10868 10868 10868 10868 10869 10869 10868 10867 10867 10866 10867 10868 10868 10867 10868 10869 10871 10872 10874 10875 10877 10878 10878 10878 10878 10878 10877 10877 10877 10876 10876 10875 10875 10875 10875 10874 10873 10872 10872 10871 10871 10871 10871 10871 10870 10870 10869 10868 10868 10867 10866 10864 10862 10860 10858 10855 10852 10849 10845 10842 10838 10834 10830 10826 10821 10817 10813 10810 10807 10804 10801 10798 10795 10792 10789
10843 10846 10848 10850 10852 10855 10858 10861 10863 10865 10867 10866 10866 10865 10866 10867 10867 10866 10865 10865 10865 10866 10866 10866 10865 10866 10867 10868 10870 10872 10873 10875 10876 10877 10877 10876 10876 10876 10876 10876 10875 10874 10873 10873 10873 10872 10872 10871 10870 10869 10869 10868 10868 10868 10867 10866 10865 10864 10864 10863 10862 10861 10860 10858 10856 10854 10851 10848 10844 10841 10837 10833 10829 10825 10821 10817 10814 10811 10808 10805 10802 10799 10795 10792 10789 10786
10841 10845 10846 10848 10850 10853 10855 10858 10861 10863 10863 10863 10863 10864 10864 10865 10865 10864 10864 10863 10863 10864 10865 10865 10864 10864 10865 10866 10868 10870 10872 10873 10874 10875 10875 10875 10875 10875 10875 10874 10873 10872 10871 10870 10870 10869 10869 10869 10868 10867 10866 10866 10865 10865 10864 10863 10862 10861 10860 10859 10858 10857 10856 10854 10852 10850 10847 10844 10840 10837 10833 10829 10825 10822 10818 10815 10812 10808 10805 10802 10799 10796 10793 10789 10786 10784
10839 10843 10845 10846 10848 10850 10853 10855 10858 10859 10860 10860 10861 10862 10863 10863 10863 10862 10862 10861 10861 10862 10863 10863 10862 10862 10863 10864 10866 10868 10869 10871 10872 10873 10873 10873 10873 10873 10873 10872 10871 10869 10868 10868 10867 10866 10866 10865 10865 10864 10864 10863 10863 10862 10862 10860 10859 10858 10857 10855 10854 10853 10852 10850 10848 10846 10843 10840 10837 10834 10830 10827 10823 10820 10816 10813 10809 10806 10803 10800 10796 10793 10790 10788 10785 10782
10836 10841 10843 10845 10846 10848 10850 10853 10855 10856 10857 10857 10858 10860 10861 10862 10861 10860 10859 10859 10859 10860 10861 10861 10860 10861 10862 10863 10865 10866 10867 10869 10870 10871 10871 10872 10872 10872 10871 10870 10869 10867 10866 10865 10865 10864 10863 10862 10862 10862 10861 10861 10860 10860 10859 10858 10856 10855 10854 10853 10852 10850 10849 10847 10845 10842 10840 10837 10835 10832 10828 10825 10821 10818 10814 10811 10808 10804 10801 10798 10795 10792 10789 10786 10784 10781
10834 10839 10842 10843 10844 10846 10849 10851 10852 10853 10853 10854 10855 10856 10858 10859 10858 10857 10856 10856 10856 10857 10858 10859 10859 10860 10861 10862 10863 10864 10865 10867 10868 10868 10869 10869 10870 10870 10869 10868 10867 10865 10864 10863 10862 10861 10861 10860 10860 10860 10859 10859 10858 10857 10856 10855 10854 10852 10851 10850 10849 10847 10846 10844 10841 10839 10837 10835 10832 10830 10826 10823 10820 10817 10813 10810 10807 10804 10800 10797 10793 10790 10787 10785 10783 10781
10833 10837 10839 10840 10842 10844 10847 10848 10849 10849 10849 10850 10851 10852 10854 10855 10855 10854 10854 10854 10854 10855 10856 10857 10858 10859 10860 10860 10861 10863 10864 10864 10865 10866 10866 10867 10867 10867 10866 10866 10865 10863 10862 10861 10860 10859 10859 10858 10857 10857 10857 10856 10856 10855 10854 10853 10851 10850 10849 10848 10847 10845 10843 10841 10839 10836 10834 10832 10830 10827 10825 10822 10819 10815 10812 10809 10806 10803 10800 10796 10793 10789 10786 10784 10782 10780
10832 10835 10836 10837 10839 10842 10844 10845 10845 10845 10845 10846 10848 10849 10850 10851 10851 10851 10851 10852 10852 10852 10853 10854 10856 10857 10857 10858 10859 10861 10861 10862 10863 10863 10863 10864 10865 10864 10864 10863 10863 10862 10860 10859 10858 10858 10857 10856 10855 10855 10854 10854 10853 10853 10852 10851 10850 10849 10848 10846 10845 10843 10841 10838 10836 10834 10832 10830 10827 10825 10823 10820 10817 10814 10811 10808 10805 10802 10799 10795 10792 10789 10786 10784 10782 10780
10830 10833 10834 10835 10837 10839 10840 10841 10841 10840 10841 10844 10845 10846 10846 10847 10847 10847 10848 10848 10849 10849 10850 10852 10853 10854 10854 10855 10857 10858 10859 10860 10861 10861 10861 10862 10862 10862 10861 10861 10860 10860 10859 10857 10857 10856 10855 10854 10853 10853 10852 10852 10851 10851 10850 10849 10848 10847 10846 10844 10842 10840 10838 10836 10835 10833 10830 10828 10826 10823 10821 10819 10816 10813 10810 10807 10804 10801 10797 10794 10791 10788 10786 10783 10781 10779
10828 10831 10831 10832 10834 10835 10837 10838 10837 10836 10838 10841 10842 10842 10843 10844 10843 10843 10844 10845 10845 10846 10847 10849 10850 10851 10852 10853 10854 10856 10857 10858 10858 10859 10859 10860 10860 10859 10859 10859 10858 10858 10857 10856 10855 10854 10854 10853 10852 10851 10850 10850 10849 10848 10848 10847 10846 10845 10844 10842 10840 10838 10837 10835 10833 10831 10829 10827 10825 10823 10820 10818 10815 10812 10809 10806 10802 10799 10796 10793 10790 10788 10785 10783 10780 10778
10825 10828 10828 10829 10830 10831 10833 10834 10834 10834 10836 10838 10839 10840 10841 10840 10840 10840 10841 10841 10842 10843 10845 10847 10848 10849 10850 10851 10852 10853 10854 10855 10856 10857 10857 10858 10858 10857 10857 10857 10856 10856 10855 10854 10853 10852 10852 10851 10850 10849 10849 10848 10847 10846 10846 10845 10844 10843 10841 10840 10838 10836 10835 10833 10831 10830 10828 10826 10825 10822 10820 10817 10814 10811 10808 10805 10802 10799 10796 10793 10790 10787 10785 10782 10780 10777
10822 10824 10825 10825 10826 10828 10830 10832 10832 10833 10834 10835 10837 10837 10838 10838 10838 10838 10838 10839 10840 10842 10843 10845 10846 10847 10847 10849 10850 10851 10852 10853 10854 10855 10855 10855 10855 10855 10855 10855 10854 10853 10853 10852 10851 10850 10850 10849 10848 10848 10847 10846 10845 10844 10843 10843 10842 10841 10839 10837 10836 10834 10833 10831 10829 10828 10826 10824 10823 10821 10818 10815 10813 10810 10807 10804 10801 10798 10795 10792 10789 10786 10784 10781 10778 10776
10818 10820 10821 10822 10824 10826 10829 10830 10830 10830 10831 10832 10833 10834 10835 10836 10837 10836 10837 10838 10839 10840 10842 10842 10843 10844 10845 10846 10847 10848 10849 10850 10852 10852 10853 10853 10853 10853 10853 10853 10852 10852 10851 10850 10849 10848 10847 10847 10846 10846 10845 10844 10843 10842 10841 10840 10839 10838 10837 10835 10834 10832 10831 10829 10827 10825 10823 10821 10820 10818 10816 10813 10810 10807 10804 10802 10799 10796 10793 10790 10787 10785 10782 10779 10777 10774
10813 10815 10817 10819 10822 10825 10827 10827 10827 10827 10828 10829 10830 10831 10832 10833 10833 10834 10835 10836 10838 10839 10840 10840 10841 10841 10843 10844 10844 10845 10847 10848 10849 10850 10851 10851 10851 10851 10851 10851 10850 10850 10849 10848 10847 10846 10845 10844 10844 10843 10842 10841 10840 10839 10838 10837 10836 10835 10834 10833 10831 10830 10828 10826 10824 10822 10820 10818 10816 10815 10813 10811 10808 10805 10802 10799 10797 10793 10791 10788 10785 10783 10780 10777 10775 10772
10808 10810 10813 10816 10819 10822 10823 10823 10823 10824 10825 10826 10827 10827 10828 10828 10829 10830 10832 10834 10836 10837 10838 10838 10839 10839 10840 10841 10842 10843 10844 10846 10847 10848 10849 10849 10849 10849 10849 10849 10848 10848 10847 10846 10845 10844 10843 10842 10841 10840 10839 10839 10838 10837 10835 10834 10834 10833 10831 10830 10829 10827 10826 10824 10822 10820 10818 10815 10813 10812 10810 10808 10805 10803 10800 10797 10794 10791 10788 10786 10784 10781 10778 10775 10773 10770
10802 10805 10808 10812 10815 10818 10819 10819 10820 10821 10822 10823 10824 10823 10824 10824 10825 10826 10829 10831 10833 10835 10836 10837 10837 10837 10838 10839 10840 10841 10842 10843 10844 10845 10846 10847 10847 10847 10847 10847 10846 10846 10845 10843 10843 10842 10841 10840 10839 10838 10837 10836 10835 10834 10833 10832 10831 10830 10828 10827 10826 10824 10823 10821 10819 10817 10815 10813 10811 10809 10807 10805 10803 10800 10797 10794 10792 10789 10787 10784 10781 10778 10775 10773 10770 10768
10797 10800 10803 10807 10811 10813 10815 10816 10817 10819 10820 10820 10820 10821 10822 10822 10823 10825 10827 10829 10830 10832 10834 10834 10835 10835 10835 10836 10837 10838 10839 10841 10842 10843 10844 10844 10844 10844 10844 10844 10844 10844 10842 10841 10840 10840 10839 10838 10837 10836 10835 10833 10832 10831 10830 10829 10828 10827 10825 10824 10823 10821 10819 10817 10816 10814 10812 10810 10808 10806 10804 10802 10800 10798 10795 10793 10790 10787 10784 10781 10778 10776 10773 10770 10768 10765